| time (UTC) | temp C | wind direction | speed KPH | gust KPH | rain 1hr cm | rain 24hr cm | rain mn cm | humidity % | barometer mb |
| 20260509211705 | 15 | 157 | 1.6 | 4.8 | 0.00 | 1.04 | 0.53 | 65 | 1010.3 |
| 20260509211409 | 15 | 67 | 1.6 | 4.8 | 0.00 | 1.04 | 0.53 | 65 | 1010.4 |
| 20260509210653 | 15 | 147 | 0.0 | 4.8 | 0.00 | 1.04 | 0.53 | 65 | 1010.4 |
| 20260509210343 | 15 | 115 | 0.0 | 4.8 | 0.00 | 1.04 | 0.53 | 66 | 1010.4 |
| 20260509210045 | 15 | 66 | 0.0 | 4.8 | 0.00 | 1.04 | 0.53 | 66 | 1010.4 |
| 20260509205742 | 15 | 257 | 0.0 | 4.8 | 0.00 | 1.04 | 0.53 | 67 | 1010.4 |
| 20260509205443 | 15 | 239 | 0.0 | 4.8 | 0.00 | 1.04 | 0.53 | 66 | 1010.4 |
| 20260509205137 | 15 | 129 | 0.0 | 3.2 | 0.00 | 1.04 | 0.53 | 67 | 1010.4 |
| 20260509204402 | 15 | 160 | 0.0 | 3.2 | 0.00 | 1.04 | 0.53 | 69 | 1010.4 |
| 20260509204106 | 14 | 98 | 0.0 | 1.6 | 0.00 | 1.04 | 0.53 | 69 | 1010.5 |
| 20260509203753 | 14 | 43 | 0.0 | 1.6 | 0.00 | 1.04 | 0.53 | 69 | 1010.5 |
| 20260509203440 | 14 | 42 | 0.0 | 1.6 | 0.00 | 1.04 | 0.53 | 69 | 1010.6 |
| 20260509174535 | 13 | 224 | 0.0 | 1.6 | 0.00 | 0.48 | 0.51 | 73 | 1011.8 |
| 20260509174223 | 13 | 224 | 0.0 | 1.6 | 0.00 | 0.48 | 0.51 | 73 | 1011.8 |
| 20260509173922 | 13 | 224 | 0.0 | 1.6 | 0.00 | 0.48 | 0.51 | 73 | 1011.8 |
| 20260509173612 | 13 | 224 | 0.0 | 1.6 | 0.00 | 0.48 | 0.51 | 73 | 1011.8 |
| 20260509173314 | 13 | 224 | 0.0 | 1.6 | 0.00 | 0.48 | 0.51 | 73 | 1011.8 |
| 20260509173001 | 13 | 230 | 0.0 | 0.0 | 0.00 | 0.48 | 0.51 | 73 | 1011.9 |
| 20260509172647 | 13 | 231 | 0.0 | 0.0 | 0.00 | 0.48 | 0.51 | 72 | 1011.8 |
| 20260509172348 | 12 | 231 | 0.0 | 0.0 | 0.00 | 0.48 | 0.51 | 72 | 1011.9 |
| 20260509171626 | 12 | 162 | 0.0 | 0.0 | 0.00 | 0.48 | 0.51 | 72 | 1012.1 |
| 20260509170900 | 12 | 123 | 0.0 | 0.0 | 0.00 | 0.48 | 0.51 | 72 | 1012.2 |
| 20260509170547 | 12 | 190 | 0.0 | 3.2 | 0.00 | 0.48 | 0.51 | 72 | 1012.2 |
| 20260509170248 | 12 | 223 | 0.0 | 3.2 | 0.00 | 0.48 | 0.48 | 72 | 1012.2 |
| 20260509165934 | 12 | 314 | 0.0 | 3.2 | 0.00 | 0.48 | 0.48 | 72 | 1012.2 |
| 20260509165209 | 12 | 200 | 0.0 | 1.6 | 0.00 | 0.48 | 0.48 | 72 | 1012.3 |
| 20260509164428 | 12 | 91 | 0.0 | 3.2 | 0.00 | 0.48 | 0.48 | 72 | 1012.2 |
| 20260509164130 | 12 | 205 | 0.0 | 3.2 | 0.00 | 0.46 | 0.46 | 72 | 1012.1 |
| 20260509163822 | 12 | 101 | 0.0 | 3.2 | 0.00 | 0.46 | 0.46 | 72 | 1012.2 |
| 20260509163523 | 12 | 97 | 0.0 | 3.2 | 0.00 | 0.46 | 0.46 | 72 | 1012.3 |
| 20260509163227 | 12 | 215 | 0.0 | 3.2 | 0.00 | 0.46 | 0.46 | 72 | 1012.2 |
| 20260509162918 | 12 | 117 | 1.6 | 4.8 | 0.00 | 0.46 | 0.46 | 71 | 1012.1 |
| 20260509162201 | 12 | 178 | 0.0 | 4.8 | 0.10 | 0.46 | 0.46 | 71 | 1012.1 |
| 20260509161853 | 12 | 195 | 0.0 | 11.3 | 0.13 | 0.46 | 0.46 | 70 | 1012.0 |
| 20260509161130 | 12 | 136 | 1.6 | 11.3 | 0.15 | 0.46 | 0.46 | 70 | 1011.7 |
| 20260509160402 | 12 | 344 | 3.2 | 11.3 | 0.13 | 0.41 | 0.43 | 70 | 1011.5 |
| 20260509160056 | 12 | 325 | 1.6 | 8.0 | 0.13 | 0.41 | 0.43 | 69 | 1011.6 |
| 20260509155749 | 12 | 312 | 1.6 | 6.4 | 0.13 | 0.41 | 0.43 | 69 | 1011.6 |
| 20260509155435 | 12 | 42 | 0.0 | 6.4 | 0.15 | 0.41 | 0.41 | 69 | 1011.6 |
| 20260509155136 | 12 | 335 | 0.0 | 4.8 | 0.15 | 0.41 | 0.41 | 69 | 1011.8 |
| 20260509154824 | 12 | 263 | 0.0 | 3.2 | 0.15 | 0.41 | 0.41 | 69 | 1011.8 |
| 20260509153633 | 12 | 318 | 0.0 | 1.6 | 0.23 | 0.36 | 0.38 | 69 | 1012.1 |
| 20260509153322 | 12 | 326 | 0.0 | 1.6 | 0.23 | 0.33 | 0.33 | 68 | 1012.2 |
| 20260509153021 | 12 | 307 | 0.0 | 0.0 | 0.23 | 0.33 | 0.33 | 68 | 1012.3 |
| 20260509152714 | 12 | 293 | 0.0 | 1.6 | 0.30 | 0.33 | 0.33 | 68 | 1012.5 |
| 20260509152410 | 12 | 222 | 0.0 | 0.0 | 0.41 | 0.33 | 0.33 | 67 | 1012.7 |
| 20260509152107 | 12 | 93 | 0.0 | 0.0 | 0.30 | 0.30 | 0.30 | 67 | 1012.6 |
| 20260509151801 | 12 | 86 | 0.0 | 0.0 | 0.33 | 0.25 | 0.25 | 67 | 1012.8 |
| 20260509151448 | 12 | 94 | 0.0 | 0.0 | 0.38 | 0.25 | 0.25 | 66 | 1012.9 |
| 20260509151136 | 12 | 94 | 0.0 | 0.0 | 0.33 | 0.23 | 0.25 | 66 | 1013.0 |
| 20260509150824 | 12 | 94 | 0.0 | 0.0 | 0.43 | 0.23 | 0.23 | 66 | 1012.9 |
| 20260509150517 | 12 | 94 | 0.0 | 0.0 | 0.51 | 0.20 | 0.23 | 66 | 1013.0 |
| 20260509150212 | 12 | 163 | 0.0 | 0.0 | 0.53 | 0.15 | 0.20 | 66 | 1013.0 |
| 20260509145916 | 12 | 164 | 0.0 | 0.0 | 0.46 | 0.15 | 0.15 | 66 | 1013.1 |
| 20260509145608 | 12 | 164 | 0.0 | 0.0 | 0.33 | 0.10 | 0.15 | 66 | 1013.0 |
| 20260509145307 | 12 | 164 | 0.0 | 0.0 | 0.46 | 0.10 | 0.13 | 66 | 1012.9 |
| 20260509145005 | 12 | 164 | 0.0 | 0.0 | 0.15 | 0.10 | 0.10 | 66 | 1012.9 |
| 20260509144238 | 12 | 158 | 0.0 | 0.0 | 0.13 | 0.08 | 0.08 | 66 | 1012.6 |
| 20260509143935 | 12 | 158 | 0.0 | 0.0 | 0.13 | 0.08 | 0.08 | 65 | 1012.5 |
| 20260509143636 | 12 | 158 | 0.0 | 0.0 | 0.00 | 0.05 | 0.05 | 65 | 1012.5 |
| 20260509143336 | 12 | 225 | 0.0 | 0.0 | 0.00 | 0.05 | 0.05 | 65 | 1012.6 |
| 20260509143023 | 12 | 225 | 0.0 | 0.0 | 0.00 | 0.05 | 0.05 | 66 | 1012.5 |
| 20260509142255 | 12 | 225 | 0.0 | 0.0 | 0.00 | 0.03 | 0.03 | 65 | 1012.5 |
| 20260509141959 | 12 | 222 | 0.0 | 0.0 | 0.00 | 0.03 | 0.03 | 65 | 1012.5 |
| 20260509141659 | 12 | 222 | 0.0 | 0.0 | 0.00 | 0.03 | 0.03 | 65 | 1012.4 |
| 20260509140923 | 12 | 206 | 0.0 | 9.7 | 0.00 | 0.03 | 0.03 | 64 | 1012.2 |
| 20260509140610 | 12 | 301 | 1.6 | 9.7 | 0.00 | 0.03 | 0.03 | 64 | 1012.2 |
| 20260509140259 | 12 | 259 | 1.6 | 9.7 | 0.00 | 0.00 | 0.00 | 64 | 1012.2 |
| 20260509135955 | 12 | 188 | 1.6 | 11.3 | 0.00 | 0.00 | 0.00 | 64 | 1012.2 |
| 20260509135656 | 12 | 257 | 1.6 | 11.3 | 0.00 | 0.00 | 0.00 | 64 | 1012.2 |
| 20260509135349 | 12 | 249 | 1.6 | 11.3 | 0.00 | 0.00 | 0.00 | 64 | 1012.2 |
| 20260509135049 | 12 | 239 | 3.2 | 11.3 | 0.00 | 0.00 | 0.00 | 64 | 1012.2 |
| 20260509134310 | 12 | 338 | 1.6 | 11.3 | 0.00 | 0.00 | 0.00 | 64 | 1012.1 |
| 20260509133545 | 12 | 310 | 3.2 | 11.3 | 0.00 | 0.00 | 0.00 | 64 | 1012.0 |
| 20260509132822 | 12 | 5 | 3.2 | 11.3 | 0.00 | 0.00 | 0.00 | 64 | 1012.0 |
| 20260509132518 | 12 | 232 | 3.2 | 11.3 | 0.00 | 0.00 | 0.00 | 64 | 1012.1 |
| 20260509132210 | 12 | 281 | 3.2 | 11.3 | 0.00 | 0.00 | 0.00 | 64 | 1012.1 |
| 20260509131914 | 12 | 273 | 1.6 | 9.7 | 0.00 | 0.00 | 0.00 | 64 | 1012.1 |
| 20260509131606 | 12 | 346 | 3.2 | 9.7 | 0.00 | 0.00 | 0.00 | 63 | 1012.0 |
| 20260509131303 | 12 | 281 | 1.6 | 9.7 | 0.00 | 0.00 | 0.00 | 64 | 1012.0 |
| 20260509130952 | 12 | 274 | 0.0 | 6.4 | 0.00 | 0.00 | 0.00 | 64 | 1012.0 |
| 20260509130653 | 12 | 315 | 0.0 | 6.4 | 0.00 | 0.00 | 0.00 | 64 | 1012.1 |
| 20260509125918 | 12 | 250 | 1.6 | 6.4 | 0.00 | 0.00 | 0.00 | 64 | 1012.0 |
| 20260509125619 | 12 | 284 | 1.6 | 6.4 | 0.00 | 0.00 | 0.00 | 64 | 1012.0 |
| 20260509125308 | 11 | 312 | 1.6 | 6.4 | 0.00 | 0.00 | 0.00 | 65 | 1012.0 |
| 20260509124954 | 11 | 291 | 1.6 | 6.4 | 0.00 | 0.00 | 0.00 | 65 | 1012.0 |
| 20260509124655 | 11 | 281 | 1.6 | 4.8 | 0.00 | 0.00 | 0.00 | 65 | 1012.0 |
| 20260509124359 | 11 | 292 | 1.6 | 4.8 | 0.00 | 0.00 | 0.00 | 65 | 1012.0 |
| 20260509124100 | 11 | 292 | 1.6 | 4.8 | 0.00 | 0.00 | 0.00 | 65 | 1012.0 |
| 20260509123755 | 11 | 281 | 1.6 | 4.8 | 0.00 | 0.00 | 0.00 | 65 | 1011.9 |
| 20260509123452 | 11 | 296 | 0.0 | 4.8 | 0.00 | 0.00 | 0.00 | 65 | 1011.7 |
| 20260509123142 | 11 | 279 | 0.0 | 4.8 | 0.00 | 0.00 | 0.00 | 66 | 1011.7 |
| 20260509122832 | 11 | 271 | 0.0 | 3.2 | 0.00 | 0.00 | 0.00 | 66 | 1011.7 |
| 20260509122528 | 11 | 290 | 0.0 | 1.6 | 0.00 | 0.00 | 0.00 | 66 | 1011.7 |
| 20260509122221 | 11 | 291 | 0.0 | 1.6 | 0.00 | 0.00 | 0.00 | 65 | 1011.8 |
| 20260509121910 | 11 | 290 | 0.0 | 1.6 | 0.00 | 0.00 | 0.00 | 65 | 1011.8 |
| 20260509121612 | 11 | 277 | 0.0 | 0.0 | 0.00 | 0.00 | 0.00 | 65 | 1012.0 |
| 20260509121312 | 11 | 275 | 0.0 | 1.6 | 0.00 | 0.00 | 0.00 | 64 | 1012.1 |
| 20260509120140 | 11 | 281 | 0.0 | 8.0 | 0.00 | 0.00 | 0.00 | 64 | 1012.3 |
| 20260509115830 | 11 | 244 | 1.6 | 8.0 | 0.00 | 0.00 | 0.00 | 63 | 1012.4 |
| 20260509115526 | 11 | 269 | 1.6 | 8.0 | 0.00 | 0.00 | 0.00 | 63 | 1012.3 |
| 20260509115215 | 11 | 288 | 1.6 | 4.8 | 0.00 | 0.00 | 0.00 | 63 | 1012.2 |
| 20260509114453 | 11 | 279 | 0.0 | 3.2 | 0.00 | 0.00 | 0.00 | 63 | 1012.0 |
| 20260509114145 | 11 | 305 | 0.0 | 3.2 | 0.00 | 0.00 | 0.00 | 63 | 1012.1 |
| 20260509113834 | 11 | 290 | 0.0 | 3.2 | 0.00 | 0.00 | 0.00 | 63 | 1012.0 |
| 20260509113055 | 11 | 290 | 0.0 | 0.0 | 0.00 | 0.00 | 0.00 | 63 | 1011.9 |
| 20260509112754 | 11 | 293 | 0.0 | 0.0 | 0.00 | 0.00 | 0.00 | 62 | 1011.7 |
| 20260509112445 | 11 | 291 | 0.0 | 0.0 | 0.00 | 0.00 | 0.00 | 62 | 1011.7 |
| 20260509112140 | 11 | 291 | 0.0 | 0.0 | 0.00 | 0.00 | 0.00 | 62 | 1011.7 |
| 20260509111831 | 11 | 291 | 0.0 | 1.6 | 0.00 | 0.00 | 0.00 | 62 | 1011.7 |
| 20260509111107 | 11 | 236 | 0.0 | 3.2 | 0.00 | 0.00 | 0.00 | 62 | 1011.8 |
| 20260509110807 | 11 | 321 | 0.0 | 3.2 | 0.00 | 0.00 | 0.00 | 63 | 1011.7 |
| 20260509105625 | 11 | 253 | 0.0 | 3.2 | 0.00 | 0.00 | 0.00 | 63 | 1011.8 |
| 20260509105321 | 11 | 267 | 0.0 | 4.8 | 0.00 | 0.00 | 0.00 | 62 | 1011.5 |
| 20260509105023 | 11 | 49 | 0.0 | 4.8 | 0.00 | 0.00 | 0.00 | 62 | 1011.3 |
| 20260509104715 | 11 | 61 | 0.0 | 4.8 | 0.00 | 0.00 | 0.00 | 62 | 1011.2 |
| 20260509104419 | 11 | 60 | 0.0 | 4.8 | 0.00 | 0.00 | 0.00 | 62 | 1011.2 |
| 20260509104110 | 11 | 109 | 0.0 | 0.0 | 0.00 | 0.00 | 0.00 | 62 | 1011.3 |
| 20260509103814 | 11 | 107 | 0.0 | 0.0 | 0.00 | 0.00 | 0.00 | 62 | 1011.3 |
| 20260509103509 | 11 | 240 | 0.0 | 0.0 | 0.00 | 0.00 | 0.00 | 62 | 1011.4 |
| 20260509103202 | 11 | 101 | 0.0 | 0.0 | 0.00 | 0.00 | 0.00 | 62 | 1011.1 |
| 20260509102850 | 11 | 286 | 0.0 | 0.0 | 0.00 | 0.00 | 0.00 | 61 | 1011.4 |
| 20260509102540 | 11 | 244 | 0.0 | 0.0 | 0.00 | 0.00 | 0.00 | 62 | 1011.4 |
| 20260509102228 | 11 | 244 | 0.0 | 0.0 | 0.00 | 0.00 | 0.00 | 61 | 1011.3 |
| 20260509101931 | 11 | 95 | 1.6 | 6.4 | 0.00 | 0.00 | 0.00 | 62 | 1011.2 |
| 20260509101210 | 10 | 94 | 0.0 | 4.8 | 0.00 | 0.00 | 0.00 | 62 | 1011.0 |
| 20260509100909 | 10 | 82 | 0.0 | 4.8 | 0.00 | 0.00 | 0.00 | 62 | 1011.0 |
| 20260509100604 | 10 | 82 | 0.0 | 0.0 | 0.00 | 0.00 | 0.00 | 62 | 1011.2 |
| 20260509100305 | 10 | 82 | 0.0 | 1.6 | 0.00 | 0.00 | 0.00 | 63 | 1011.2 |
| 20260509095959 | 10 | 286 | 0.0 | 0.0 | 0.00 | 0.00 | 0.00 | 62 | 1011.3 |
| 20260509095646 | 10 | 286 | 0.0 | 3.2 | 0.00 | 0.00 | 0.00 | 63 | 1011.2 |
| 20260509095338 | 10 | 276 | 0.0 | 3.2 | 0.00 | 0.00 | 0.00 | 62 | 1011.3 |
| 20260509095025 | 10 | 269 | 0.0 | 3.2 | 0.00 | 0.00 | 0.00 | 62 | 1011.4 |
| 20260509094713 | 10 | 150 | 0.0 | 0.0 | 0.00 | 0.00 | 0.00 | 62 | 1011.2 |
| 20260509094417 | 10 | 150 | 0.0 | 0.0 | 0.00 | 0.00 | 0.00 | 62 | 1011.2 |
| 20260509094116 | 10 | 150 | 0.0 | 0.0 | 0.00 | 0.00 | 0.00 | 63 | 1011.2 |
| 20260509092940 | 10 | 150 | 0.0 | 0.0 | 0.00 | 0.00 | 0.00 | 62 | 1011.3 |
| 20260509092644 | 10 | 150 | 0.0 | 0.0 | 0.00 | 0.00 | 0.00 | 62 | 1011.3 |
| 20260509091924 | 10 | 150 | 0.0 | 0.0 | 0.00 | 0.00 | 0.00 | 61 | 1011.4 |
| 20260509091200 | 10 | 150 | 0.0 | 0.0 | 0.00 | 0.00 | 0.00 | 61 | 1011.2 |
| 20260509090849 | 11 | 150 | 0.0 | 0.0 | 0.00 | 0.00 | 0.00 | 61 | 1011.3 |
| 20260509090549 | 11 | 150 | 0.0 | 0.0 | 0.00 | 0.00 | 0.00 | 61 | 1011.3 |
| 20260509084946 | 11 | 150 | 0.0 | 0.0 | 0.00 | 0.00 | 0.00 | 61 | 1011.4 |
| 20260509084633 | 11 | 150 | 0.0 | 0.0 | 0.00 | 0.00 | 0.00 | 61 | 1011.4 |
| 20260509084330 | 11 | 150 | 0.0 | 0.0 | 0.00 | 0.00 | 0.00 | 61 | 1011.4 |
| 20260509084027 | 11 | 150 | 0.0 | 0.0 | 0.00 | 0.00 | 0.00 | 61 | 1011.5 |
| 20260509083721 | 11 | 150 | 0.0 | 0.0 | 0.00 | 0.00 | 0.00 | 61 | 1011.4 |
| 20260509083414 | 11 | 94 | 0.0 | 1.6 | 0.00 | 0.00 | 0.00 | 62 | 1011.5 |
| 20260509083103 | 10 | 72 | 0.0 | 0.0 | 0.00 | 0.00 | 0.00 | 62 | 1011.5 |
| 20260509082755 | 10 | 72 | 0.0 | 0.0 | 0.00 | 0.00 | 0.00 | 62 | 1011.5 |
| 20260509082457 | 10 | 72 | 0.0 | 0.0 | 0.00 | 0.00 | 0.00 | 62 | 1011.5 |
| 20260509082159 | 10 | 65 | 0.0 | 0.0 | 0.00 | 0.00 | 0.00 | 62 | 1011.7 |
| 20260509081017 | 10 | 65 | 0.0 | 3.2 | 0.00 | 0.00 | 0.00 | 62 | 1011.7 |
| 20260509080720 | 10 | 75 | 0.0 | 0.0 | 0.00 | 0.00 | 0.00 | 63 | 1011.5 |
| 20260509080411 | 10 | 78 | 0.0 | 0.0 | 0.00 | 0.00 | 0.00 | 63 | 1011.5 |
| 20260509080106 | 10 | 78 | 0.0 | 0.0 | 0.00 | 0.00 | 0.00 | 63 | 1011.6 |
| 20260509075801 | 10 | 78 | 0.0 | 0.0 | 0.00 | 0.00 | 0.00 | 63 | 1011.6 |
| 20260509075500 | 10 | 145 | 0.0 | 0.0 | 0.00 | 0.00 | 0.00 | 62 | 1011.7 |
| 20260509075156 | 10 | 145 | 0.0 | 0.0 | 0.00 | 0.00 | 0.00 | 63 | 1011.7 |
| 20260509074856 | 10 | 145 | 0.0 | 0.0 | 0.00 | 0.00 | 0.00 | 63 | 1011.7 |
| 20260509074557 | 10 | 83 | 0.0 | 0.0 | 0.00 | 0.00 | 0.00 | 63 | 1011.7 |
| 20260509074256 | 10 | 86 | 0.0 | 0.0 | 0.00 | 0.00 | 0.00 | 63 | 1011.7 |
| 20260509073955 | 10 | 190 | 0.0 | 0.0 | 0.00 | 0.00 | 0.00 | 62 | 1011.7 |
| 20260509073650 | 10 | 190 | 0.0 | 0.0 | 0.00 | 0.00 | 0.00 | 63 | 1011.7 |
| 20260509073339 | 10 | 190 | 0.0 | 0.0 | 0.00 | 0.00 | 0.00 | 63 | 1011.7 |
| 20260509073039 | 10 | 190 | 0.0 | 0.0 | 0.00 | 0.00 | 0.00 | 63 | 1011.8 |
| 20260509072734 | 10 | 190 | 0.0 | 0.0 | 0.00 | 0.00 | 0.00 | 62 | 1011.7 |
| 20260509072433 | 10 | 190 | 0.0 | 0.0 | 0.00 | 0.00 | 0.00 | 62 | 1011.8 |
| 20260509072121 | 10 | 190 | 0.0 | 0.0 | 0.00 | 0.00 | 0.00 | 62 | 1011.9 |
| 20260509071818 | 10 | 190 | 0.0 | 0.0 | 0.00 | 0.00 | 0.00 | 62 | 1011.9 |
| 20260509071519 | 10 | 190 | 0.0 | 0.0 | 0.00 | 0.00 | 0.00 | 62 | 1011.9 |
| 20260509071206 | 10 | 199 | 0.0 | 0.0 | 0.00 | 0.00 | 0.00 | 62 | 1011.9 |
| 20260509070859 | 10 | 199 | 0.0 | 0.0 | 0.00 | 0.00 | 0.00 | 62 | 1012.0 |
| 20260509070604 | 10 | 199 | 0.0 | 0.0 | 0.00 | 0.00 | 0.00 | 61 | 1012.0 |
| 20260509070304 | 10 | 199 | 0.0 | 0.0 | 0.00 | 0.00 | 0.00 | 61 | 1011.9 |
| 20260509065954 | 10 | 199 | 0.0 | 0.0 | 0.00 | 0.00 | 0.00 | 61 | 1012.0 |
| 20260509065643 | 10 | 199 | 0.0 | 0.0 | 0.00 | 0.00 | 0.00 | 61 | 1012.0 |
| 20260509065347 | 10 | 259 | 0.0 | 0.0 | 0.00 | 0.00 | 0.00 | 61 | 1012.0 |
| 20260509065044 | 11 | 337 | 0.0 | 0.0 | 0.00 | 0.00 | 0.00 | 60 | 1012.1 |
| 20260509064741 | 11 | 337 | 0.0 | 0.0 | 0.00 | 0.00 | 0.00 | 60 | 1012.1 |
| 20260509064434 | 11 | 336 | 0.0 | 0.0 | 0.00 | 0.00 | 0.00 | 60 | 1012.2 |
| 20260509063710 | 11 | 336 | 0.0 | 0.0 | 0.00 | 0.00 | 0.00 | 60 | 1012.2 |
| 20260509063405 | 11 | 336 | 0.0 | 0.0 | 0.00 | 0.00 | 0.00 | 60 | 1012.3 |
| 20260509063053 | 11 | 336 | 0.0 | 0.0 | 0.00 | 0.00 | 0.00 | 60 | 1012.3 |
| 20260509062744 | 11 | 336 | 0.0 | 0.0 | 0.00 | 0.00 | 0.00 | 60 | 1012.4 |
| 20260509062438 | 11 | 336 | 0.0 | 0.0 | 0.00 | 0.00 | 0.00 | 60 | 1012.3 |
| 20260509062133 | 11 | 335 | 0.0 | 0.0 | 0.00 | 0.00 | 0.00 | 60 | 1012.3 |
| 20260509061818 | 11 | 59 | 0.0 | 0.0 | 0.00 | 0.00 | 0.00 | 59 | 1012.3 |
| 20260509061508 | 11 | 79 | 0.0 | 0.0 | 0.00 | 0.00 | 0.00 | 59 | 1012.4 |
| 20260509061157 | 11 | 95 | 0.0 | 0.0 | 0.00 | 0.00 | 0.00 | 59 | 1012.4 |
| 20260509060842 | 11 | 95 | 0.0 | 0.0 | 0.00 | 0.00 | 0.00 | 59 | 1012.4 |
| 20260509060528 | 11 | 92 | 0.0 | 0.0 | 0.00 | 0.00 | 0.00 | 59 | 1012.4 |
| 20260509060218 | 11 | 355 | 0.0 | 0.0 | 0.00 | 0.00 | 0.00 | 59 | 1012.3 |
| 20260509053741 | 12 | 342 | 0.0 | 0.0 | 0.00 | 0.00 | 0.00 | 58 | 1012.1 |
| 20260509053434 | 11 | 342 | 0.0 | 0.0 | 0.00 | 0.00 | 0.00 | 58 | 1012.3 |
| 20260509053126 | 12 | 342 | 0.0 | 0.0 | 0.00 | 0.00 | 0.00 | 58 | 1012.3 |
| 20260509052816 | 12 | 342 | 0.0 | 0.0 | 0.00 | 0.00 | 0.00 | 58 | 1012.3 |
| 20260509052512 | 12 | 342 | 0.0 | 0.0 | 0.00 | 0.00 | 0.00 | 58 | 1012.3 |
| 20260509051747 | 12 | 299 | 0.0 | 0.0 | 0.00 | 0.00 | 0.00 | 57 | 1012.4 |
| 20260509051436 | 12 | 299 | 0.0 | 0.0 | 0.00 | 0.00 | 0.00 | 57 | 1012.4 |
| 20260509051124 | 12 | 299 | 0.0 | 0.0 | 0.00 | 0.00 | 0.00 | 58 | 1012.4 |
| 20260509050811 | 12 | 299 | 0.0 | 0.0 | 0.00 | 0.00 | 0.00 | 57 | 1012.6 |
| 20260509050511 | 12 | 299 | 0.0 | 0.0 | 0.00 | 0.00 | 0.00 | 57 | 1012.5 |
| 20260509050201 | 12 | 299 | 0.0 | 0.0 | 0.00 | 0.00 | 0.00 | 58 | 1012.6 |
| 20260509045853 | 12 | 299 | 0.0 | 0.0 | 0.00 | 0.00 | 0.00 | 58 | 1012.7 |
| 20260509045553 | 12 | 299 | 0.0 | 0.0 | 0.00 | 0.00 | 0.00 | 58 | 1012.6 |
| 20260509045249 | 12 | 212 | 0.0 | 0.0 | 0.00 | 0.00 | 0.00 | 57 | 1012.7 |
| 20260509044947 | 12 | 212 | 0.0 | 0.0 | 0.00 | 0.00 | 0.00 | 57 | 1012.6 |
| 20260509044640 | 12 | 212 | 0.0 | 0.0 | 0.00 | 0.00 | 0.00 | 57 | 1012.7 |
| 20260509043923 | 12 | 212 | 0.0 | 0.0 | 0.00 | 0.00 | 0.00 | 57 | 1012.6 |
| 20260509042757 | 12 | 212 | 0.0 | 0.0 | 0.00 | 0.00 | 0.00 | 56 | 1012.6 |
| 20260509042447 | 12 | 212 | 0.0 | 0.0 | 0.00 | 0.00 | 0.00 | 55 | 1012.7 |
| 20260509042148 | 12 | 212 | 0.0 | 0.0 | 0.00 | 0.00 | 0.00 | 56 | 1012.7 |
| 20260509041835 | 12 | 212 | 0.0 | 0.0 | 0.00 | 0.00 | 0.00 | 56 | 1012.7 |
| 20260509041535 | 12 | 212 | 0.0 | 0.0 | 0.00 | 0.00 | 0.00 | 56 | 1012.7 |
| 20260509041226 | 12 | 240 | 0.0 | 0.0 | 0.00 | 0.00 | 0.00 | 55 | 1012.8 |
| 20260509040923 | 12 | 240 | 0.0 | 0.0 | 0.00 | 0.00 | 0.00 | 55 | 1012.7 |
| 20260509040620 | 12 | 240 | 0.0 | 0.0 | 0.00 | 0.00 | 0.00 | 54 | 1012.7 |
| 20260509040310 | 12 | 180 | 0.0 | 0.0 | 0.00 | 0.00 | 0.00 | 54 | 1012.6 |
| 20260509040000 | 12 | 180 | 0.0 | 0.0 | 0.00 | 0.00 | 0.00 | 54 | 1012.6 |
| 20260509035650 | 12 | 180 | 0.0 | 0.0 | 0.00 | 0.00 | 0.00 | 54 | 1012.7 |
| 20260509035353 | 12 | 180 | 0.0 | 0.0 | 0.00 | 0.00 | 0.00 | 53 | 1012.8 |
| 20260509035052 | 12 | 180 | 0.0 | 0.0 | 0.00 | 0.00 | 0.00 | 54 | 1012.8 |
| 20260509033900 | 12 | 180 | 0.0 | 0.0 | 0.00 | 0.00 | 0.00 | 52 | 1012.8 |
| 20260509033555 | 12 | 180 | 0.0 | 0.0 | 0.00 | 0.00 | 0.00 | 53 | 1012.9 |
| 20260509033243 | 12 | 180 | 0.0 | 0.0 | 0.00 | 0.00 | 0.00 | 52 | 1012.9 |
| 20260509032939 | 12 | 180 | 0.0 | 0.0 | 0.00 | 0.00 | 0.00 | 52 | 1013.0 |
| 20260509032634 | 12 | 180 | 0.0 | 0.0 | 0.00 | 0.00 | 0.00 | 52 | 1013.0 |
| 20260509032336 | 12 | 180 | 0.0 | 0.0 | 0.00 | 0.00 | 0.00 | 52 | 1013.1 |
| 20260509032026 | 12 | 180 | 0.0 | 0.0 | 0.00 | 0.00 | 0.00 | 52 | 1013.2 |
| 20260509031312 | 12 | 180 | 0.0 | 0.0 | 0.00 | 0.00 | 0.00 | 52 | 1013.2 |
| 20260509031002 | 12 | 254 | 0.0 | 0.0 | 0.00 | 0.00 | 0.00 | 52 | 1013.2 |
| 20260509030653 | 12 | 254 | 0.0 | 0.0 | 0.00 | 0.00 | 0.00 | 52 | 1013.1 |
| 20260509030350 | 12 | 254 | 0.0 | 0.0 | 0.00 | 0.00 | 0.00 | 52 | 1013.1 |
| 20260509030039 | 12 | 254 | 0.0 | 0.0 | 0.00 | 0.00 | 0.00 | 52 | 1013.1 |
| 20260509025316 | 12 | 254 | 0.0 | 0.0 | 0.00 | 0.00 | 0.00 | 51 | 1013.3 |
| 20260509025014 | 12 | 254 | 0.0 | 0.0 | 0.00 | 0.00 | 0.00 | 51 | 1013.3 |
| 20260509024708 | 12 | 254 | 0.0 | 0.0 | 0.00 | 0.00 | 0.00 | 51 | 1013.3 |
| 20260509024409 | 13 | 254 | 0.0 | 0.0 | 0.00 | 0.00 | 0.00 | 51 | 1013.3 |
| 20260509024056 | 13 | 254 | 0.0 | 0.0 | 0.00 | 0.00 | 0.00 | 51 | 1013.3 |
| 20260509023347 | 13 | 205 | 0.0 | 0.0 | 0.00 | 0.00 | 0.00 | 51 | 1013.2 |
| 20260509022631 | 13 | 226 | 0.0 | 0.0 | 0.00 | 0.00 | 0.00 | 51 | 1013.1 |
| 20260509022324 | 13 | 226 | 0.0 | 0.0 | 0.00 | 0.00 | 0.00 | 51 | 1013.2 |
| 20260509021558 | 13 | 239 | 0.0 | 0.0 | 0.00 | 0.00 | 0.00 | 51 | 1013.1 |
| 20260509020829 | 13 | 245 | 0.0 | 0.0 | 0.00 | 0.00 | 0.00 | 50 | 1013.0 |
| 20260509020529 | 13 | 245 | 0.0 | 0.0 | 0.00 | 0.00 | 0.00 | 50 | 1013.0 |
| 20260509020223 | 13 | 245 | 0.0 | 0.0 | 0.00 | 0.00 | 0.00 | 50 | 1012.9 |
| 20260509015910 | 13 | 245 | 0.0 | 0.0 | 0.00 | 0.00 | 0.00 | 49 | 1012.9 |
| 20260509015600 | 13 | 245 | 0.0 | 0.0 | 0.00 | 0.00 | 0.00 | 49 | 1012.7 |
| 20260509015253 | 13 | 245 | 0.0 | 0.0 | 0.00 | 0.00 | 0.00 | 49 | 1012.7 |
| 20260509014946 | 13 | 245 | 0.0 | 0.0 | 0.00 | 0.00 | 0.00 | 49 | 1012.8 |
| 20260509014646 | 13 | 245 | 0.0 | 0.0 | 0.00 | 0.00 | 0.00 | 48 | 1012.8 |
| 20260509014344 | 13 | 245 | 0.0 | 0.0 | 0.00 | 0.00 | 0.00 | 48 | 1012.8 |
| 20260509014036 | 13 | 245 | 0.0 | 0.0 | 0.00 | 0.00 | 0.00 | 48 | 1012.8 |
| 20260509013727 | 13 | 245 | 0.0 | 0.0 | 0.00 | 0.00 | 0.00 | 47 | 1012.6 |
| 20260509013419 | 13 | 245 | 0.0 | 0.0 | 0.00 | 0.00 | 0.00 | 47 | 1012.7 |
| 20260509013114 | 13 | 245 | 0.0 | 0.0 | 0.00 | 0.00 | 0.00 | 47 | 1012.7 |
| 20260509012800 | 13 | 245 | 0.0 | 0.0 | 0.00 | 0.00 | 0.00 | 47 | 1012.7 |
| 20260509012452 | 14 | 245 | 0.0 | 0.0 | 0.00 | 0.00 | 0.00 | 47 | 1012.7 |
| 20260509012150 | 14 | 245 | 0.0 | 0.0 | 0.00 | 0.00 | 0.00 | 46 | 1012.8 |
| 20260509011851 | 14 | 245 | 0.0 | 0.0 | 0.00 | 0.00 | 0.00 | 47 | 1012.7 |
| 20260509011547 | 14 | 245 | 0.0 | 0.0 | 0.00 | 0.00 | 0.00 | 47 | 1012.8 |
| 20260509011252 | 14 | 245 | 0.0 | 0.0 | 0.00 | 0.00 | 0.00 | 46 | 1012.7 |
| 20260509010952 | 14 | 245 | 0.0 | 0.0 | 0.00 | 0.00 | 0.00 | 45 | 1012.6 |
| 20260509010649 | 14 | 245 | 0.0 | 0.0 | 0.00 | 0.00 | 0.00 | 43 | 1012.7 |
| 20260509010353 | 14 | 246 | 0.0 | 0.0 | 0.00 | 0.00 | 0.00 | 44 | 1012.6 |
| 20260509010045 | 14 | 246 | 0.0 | 0.0 | 0.00 | 0.00 | 0.00 | 43 | 1012.7 |
| 20260509005312 | 14 | 246 | 0.0 | 0.0 | 0.00 | 0.00 | 0.00 | 43 | 1012.7 |
| 20260509004538 | 15 | 246 | 0.0 | 0.0 | 0.00 | 0.00 | 0.00 | 43 | 1012.6 |
| 20260509004239 | 15 | 246 | 0.0 | 0.0 | 0.00 | 0.00 | 0.00 | 42 | 1012.6 |
| 20260509003931 | 15 | 246 | 0.0 | 0.0 | 0.00 | 0.00 | 0.00 | 42 | 1012.6 |
| 20260509003635 | 15 | 246 | 0.0 | 0.0 | 0.00 | 0.00 | 0.00 | 43 | 1012.5 |
| 20260509002437 | 15 | 263 | 0.0 | 0.0 | 0.00 | 0.00 | 0.00 | 41 | 1012.5 |
| 20260509002138 | 15 | 263 | 0.0 | 0.0 | 0.00 | 0.00 | 0.00 | 40 | 1012.6 |
| 20260509001825 | 15 | 263 | 0.0 | 0.0 | 0.00 | 0.00 | 0.00 | 40 | 1012.6 |
| 20260509001523 | 15 | 263 | 0.0 | 0.0 | 0.00 | 0.00 | 0.00 | 40 | 1012.6 |
| 20260509001222 | 15 | 263 | 0.0 | 0.0 | 0.00 | 0.00 | 0.00 | 39 | 1012.6 |
| 20260509000911 | 15 | 263 | 0.0 | 0.0 | 0.00 | 0.00 | 0.00 | 39 | 1012.5 |
| 20260509000613 | 15 | 203 | 0.0 | 0.0 | 0.00 | 0.00 | 0.00 | 39 | 1012.5 |
| 20260509000311 | 15 | 203 | 0.0 | 0.0 | 0.00 | 0.00 | 0.00 | 39 | 1012.4 |
| 20260508235956 | 16 | 9 | 0.0 | 0.0 | 0.00 | 0.00 | 0.00 | 38 | 1012.3 |
| 20260508235238 | 16 | 286 | 0.0 | 8.0 | 0.00 | 0.00 | 0.00 | 38 | 1012.3 |
| 20260508234935 | 16 | 334 | 1.6 | 8.0 | 0.00 | 0.00 | 0.00 | 38 | 1012.3 |
| 20260508234627 | 16 | 257 | 0.0 | 8.0 | 0.00 | 0.00 | 0.00 | 37 | 1012.3 |
| 20260508234324 | 16 | 265 | 0.0 | 8.0 | 0.00 | 0.00 | 0.00 | 37 | 1012.2 |
| 20260508234014 | 16 | 207 | 0.0 | 8.0 | 0.00 | 0.00 | 0.00 | 36 | 1012.2 |
| 20260508233716 | 16 | 286 | 0.0 | 8.0 | 0.00 | 0.00 | 0.00 | 36 | 1012.1 |
| 20260508233402 | 16 | 94 | 1.6 | 11.3 | 0.00 | 0.00 | 0.00 | 36 | 1012.1 |
| 20260508233105 | 16 | 267 | 1.6 | 11.3 | 0.00 | 0.00 | 0.00 | 36 | 1012.1 |
| 20260508232758 | 16 | 281 | 3.2 | 11.3 | 0.00 | 0.00 | 0.00 | 35 | 1012.0 |
| 20260508232456 | 16 | 244 | 3.2 | 11.3 | 0.00 | 0.00 | 0.00 | 35 | 1012.0 |
| 20260508231740 | 17 | 331 | 4.8 | 16.1 | 0.00 | 0.00 | 0.00 | 34 | 1011.9 |
| 20260508231427 | 17 | 277 | 6.4 | 16.1 | 0.00 | 0.00 | 0.00 | 34 | 1011.8 |
| 20260508230237 | 17 | 208 | 4.8 | 17.7 | 0.00 | 0.00 | 0.00 | 34 | 1011.8 |
| 20260508225924 | 17 | 342 | 3.2 | 17.7 | 0.00 | 0.00 | 0.00 | 34 | 1011.8 |
| 20260508225615 | 17 | 304 | 3.2 | 17.7 | 0.00 | 0.00 | 0.00 | 34 | 1011.9 |
| 20260508225310 | 17 | 54 | 1.6 | 8.0 | 0.00 | 0.00 | 0.00 | 35 | 1011.9 |
| 20260508225001 | 17 | 285 | 1.6 | 4.8 | 0.00 | 0.00 | 0.00 | 34 | 1012.0 |
| 20260508224650 | 17 | 250 | 1.6 | 4.8 | 0.00 | 0.00 | 0.00 | 35 | 1012.0 |
| 20260508224350 | 17 | 318 | 1.6 | 4.8 | 0.00 | 0.00 | 0.00 | 35 | 1011.9 |
| 20260508224041 | 17 | 259 | 1.6 | 11.3 | 0.00 | 0.00 | 0.00 | 34 | 1011.9 |
| 20260508222430 | 17 | 273 | 1.6 | 11.3 | 0.00 | 0.00 | 0.00 | 33 | 1011.9 |
| 20260508222119 | 17 | 193 | 1.6 | 12.9 | 0.00 | 0.00 | 0.00 | 35 | 1011.8 |
| 20260508221814 | 17 | 245 | 1.6 | 12.9 | 0.00 | 0.00 | 0.00 | 34 | 1011.7 |
| 20260508221503 | 17 | 273 | 3.2 | 12.9 | 0.00 | 0.00 | 0.00 | 34 | 1011.7 |
| 20260508221157 | 17 | 277 | 3.2 | 12.9 | 0.00 | 0.00 | 0.00 | 33 | 1011.6 |
| 20260508220437 | 17 | 254 | 3.2 | 12.9 | 0.00 | 0.00 | 0.00 | 32 | 1011.8 |
| 20260508215245 | 17 | 304 | 3.2 | 14.5 | 0.00 | 0.00 | 0.00 | 32 | 1011.8 |
| 20260508214944 | 17 | 292 | 3.2 | 19.3 | 0.00 | 0.00 | 0.00 | 34 | 1011.8 |
| 20260508214638 | 17 | 217 | 3.2 | 19.3 | 0.00 | 0.00 | 0.00 | 32 | 1011.8 |
| 20260508213907 | 17 | 210 | 3.2 | 19.3 | 0.00 | 0.00 | 0.00 | 31 | 1011.8 |
| 20260508213604 | 17 | 227 | 4.8 | 19.3 | 0.00 | 0.00 | 0.00 | 31 | 1011.9 |
| 20260508212837 | 17 | 296 | 6.4 | 19.3 | 0.00 | 0.00 | 0.00 | 29 | 1012.0 |
| 20260508212534 | 17 | 257 | 6.4 | 19.3 | 0.00 | 0.00 | 0.00 | 29 | 1011.8 |
| 20260508212235 | 17 | 275 | 6.4 | 19.3 | 0.00 | 0.00 | 0.00 | 29 | 1012.0 |
| 20260508211930 | 17 | 282 | 4.8 | 17.7 | 0.00 | 0.00 | 0.00 | 29 | 1011.8 |